Lid_Strength_Index
-1 -0 -0 2 8 9 13 12 8 10 9 6 5 6 8 7 9 11 1 -0 -1 -1 -1 -1 -2 -1 -1 -1 -1 -1 -1 -2 -2 -2 -2 -2 -2 -2 -2 -2 -2 -2 -2 -2 -2 -2 -2 -1 -2
-1 1 2 4 10 13 13 9 10 8 7 5 5 5 6 8 4 3 2 -0 -1 -1 -1 -1 -2 -1 -1 -1 -1 -1 -1 -2 -2 -2 -2 -2 -2 -2 -2 -2 -2 -2 -2 -2 -2 -2 -2 -1 -1
1 5 4 7 10 13 13 9 8 7 6 6 6 5 6 7 3 3 0 -0 -1 -1 -1 -1 -1 -1 -1 -1 -1 -1 -1 -1 -2 -2 -2 -2 -2 -2 -2 -2 -2 -2 -2 -2 -2 -2 -2 -2 -1
3 2 4 9 12 10 10 8 7 7 6 5 5 8 4 2 3 1 -0 -1 -1 -1 -1 -1 -1 -1 -1 -2 -1 -1 -1 -1 -1 -1 -1 -1 -1 -1 -1 -2 -2 -2 -2 -2 -2 -2 -2 -2 -1
3 3 9 10 11 9 8 7 6 8 7 6 5 8 7 3 1 0 -0 -1 -0 -1 -1 -1 -2 -2 -1 -2 -2 -2 -1 -1 -1 -1 -1 -1 -1 -1 -1 -1 -1 -2 -2 -2 -2 -2 -2 -2 -1
6 4 10 12 11 8 7 6 6 7 6 6 6 7 7 2 1 1 -0 -0 -1 -1 -1 -1 -2 -2 -2 -2 -2 -2 -2 -2 -1 -1 -1 -1 -1 -1 -1 -1 -1 -1 -2 -2 -2 -2 -2 -2 -1
5 7 10 10 11 10 8 5 7 7 7 7 5 8 6 3 1 0 -0 -0 -1 -1 -1 -1 -1 -2 -2 -2 -2 -2 -2 -2 -2 -2 -2 -1 -2 -2 -1 -1 -1 -1 -2 -2 -2 -2 -2 -2 -2
5 6 10 10 10 11 7 7 6 7 8 4 4 8 8 4 1 1 1 1 -0 0 -0 -1 -1 -1 -1 -1 -2 -2 -2 -2 -2 -2 -2 -2 -2 -2 -2 -1 -2 -1 -1 -1 -1 -1 -1 -1 -2
3 8 10 10 10 10 6 8 5 4 6 5 5 5 3 2 1 1 2 2 2 2 1 0 0 -0 -2 -2 -1 -1 -2 -1 -2 -2 -2 -2 -2 -2 -2 -2 -1 -2 -1 -2 -1 -1 -1 -0 -1
5 8 10 7 7 9 7 7 7 7 7 7 6 4 2 3 3 3 3 3 2 2 2 2 1 1 0 -0 -1 -1 -0 -0 -0 -0 -1 -1 -2 -1 -2 -2 -2 -2 -1 -1 -1 -1 -1 -1 -0
7 9 8 7 7 6 7 7 6 7 9 7 7 5 4 4 4 4 4 3 3 3 3 3 2 1 1 1 1 0 -1 -0 -1 -0 -0 -1 -1 -2 -2 -2 -2 -1 -1 -2 -1 -1 -1 -1 -1
9 7 7 7 6 7 8 6 7 7 7 5 4 4 4 5 4 4 5 4 4 4 2 2 1 1 -0 1 1 1 1 1 1 -1 -2 -1 -0 -1 -1 -1 -1 -1 -1 -0 0 0 -0 0 0
8 8 7 6 6 6 6 7 7 7 5 4 3 4 4 5 5 4 3 3 3 2 2 1 1 0 0 0 1 0 0 0 -1 -1 -2 -1 -1 -1 -1 -1 -1 -2 -1 -0 0 0 -0 1 1
7 7 7 6 6 6 8 8 7 7 4 5 4 4 4 4 4 4 3 3 3 2 1 1 1 -1 -1 -0 -0 0 -0 -0 -0 -1 -2 -2 -2 -1 -2 -2 -1 -1 -1 -1 -1 -1 -0 0 1
6 9 8 7 7 7 6 9 10 6 5 6 5 4 4 3 3 3 3 2 2 1 1 -0 -0 -1 -1 -1 -1 -0 0 0 0 -0 -2 -2 -1 -1 -1 -1 -1 -2 -2 -1 -1 -1 -1 -1 -1
8 9 12 8 7 7 7 13 8 5 6 6 5 5 4 3 3 2 2 1 1 0 0 -1 -1 -1 -1 -1 -0 0 0 0 0 -0 -1 -2 -2 -2 -2 -1 -1 -1 -2 -2 -1 -0 -0 0 -0
9 12 13 11 7 8 8 12 8 6 6 7 6 5 4 4 3 2 1 1 0 0 0 -0 -1 -0 -1 -1 -1 -1 -1 -0 -0 -1 -1 -2 -2 -2 -1 -1 -1 -2 -1 -1 -1 -1 -1 0 -0
12 13 12 12 9 9 10 10 8 6 6 7 6 5 5 4 4 2 1 1 0 0 -0 0 0 -0 -1 -0 -0 0 0 0 -0 -0 -0 -1 -1 -2 -2 -1 -1 -1 -1 -1 -1 -0 -1 -0 -0
8 11 12 11 9 10 10 10 9 7 7 7 6 5 5 5 3 2 1 1 1 1 1 1 0 -0 0 1 1 1 2 1 1 1 1 0 0 -1 -2 -2 -2 -2 -1 -1 -1 -0 -0 0 -0
9 11 12 10 9 9 10 11 8 8 7 6 6 6 5 4 3 3 2 1 1 1 1 1 1 1 1 1 1 1 1 2 1 1 1 1 0 0 0 -1 -0 -1 -0 -0 -0 -0 1 0 -1
10 11 12 12 10 9 10 12 10 8 7 6 5 5 4 4 4 3 2 2 1 2 1 1 1 1 0 0 1 1 2 2 3 2 2 1 1 0 -0 -0 -1 -1 -1 -0 -0 -0 0 2 0
10 8 10 11 12 14 10 15 12 10 9 7 6 5 5 4 4 3 3 3 3 3 2 1 1 1 1 0 1 2 3 4 3 2 2 1 0 -1 -1 -2 -2 -1 -1 -0 -0 -1 -0 1 2
11 8 9 10 12 12 13 15 13 10 10 9 7 6 5 4 4 4 3 3 3 3 2 1 1 1 0 1 1 2 3 3 2 2 1 0 -1 -2 -1 -1 -1 -1 -2 -1 -1 -0 -0 0 1
7 9 9 9 11 15 13 14 14 12 10 8 7 6 5 4 4 4 4 4 3 2 2 2 2 1 1 1 1 2 2 2 2 2 1 0 -0 0 -1 -1 -1 -2 -1 -0 -1 -1 -1 -0 0
8 10 14 16 16 16 12 14 13 9 8 7 7 6 5 4 4 5 5 4 3 3 3 2 2 2 1 1 2 2 2 2 2 1 1 1 0 0 -0 -0 -0 -0 -1 -1 -1 -1 -0 -1 1
9 9 13 17 16 15 12 16 13 8 7 6 5 5 5 5 5 5 5 4 4 3 2 2 2 1 1 2 2 1 1 2 1 0 1 1 0 -0 -1 -1 -1 0 -0 -0 -1 -0 -0 -1 -0
9 10 8 13 13 15 14 12 10 8 8 7 6 6 5 6 6 6 4 5 4 3 2 2 1 1 1 2 1 1 2 1 1 -0 -1 -0 -1 -1 -1 -1 -1 0 -1 -1 -1 -1 -0 -0 -0
7 7 11 11 17 18 15 14 13 11 9 8 7 6 6 7 7 6 5 4 3 3 2 1 1 2 2 1 1 2 2 1 1 0 -0 -1 -1 -1 -1 -1 -1 -1 -1 -1 -1 -0 -0 0 -0
8 9 10 11 13 16 16 15 9 9 8 7 6 6 7 7 6 5 4 3 3 3 2 1 2 2 2 1 1 1 2 1 0 0 0 -1 -1 -1 -0 -1 -1 -1 -0 -0 -1 -0 -1 0 -0
7 10 10 11 15 14 14 15 7 7 7 7 6 7 7 6 6 5 5 4 3 3 2 2 2 2 2 1 1 2 2 2 1 0 0 -1 -1 -0 -0 -0 -1 -1 -0 -1 -0 -0 -0 0 1